Marathon, FL

9:12 PM EDT on September 20, 2017 (GMT -0400)
Florida Keys Marathon

Weather History for KMTH - October, 2010

Change the Weather History Date:

Friday, October 8, 2010

  Actual Average Record
Temperature  
Mean Temperature 78 °F 82 °F  
Max Temperature 83 °F 87 °F 91 °F (2013)
Min Temperature 73 °F 77 °F 68 °F (2011)
Degree Days  
Heating Degree Days 0 0  
Month to date heating degree days 0 0  
Since 1 July heating degree days 0 0  
Cooling Degree Days 13 17  
Month to date cooling degree days 116 141  
Year to date cooling degree days 3810 4095  
Growing Degree Days 28 (Base 50)    
Moisture  
Dew Point 66 °F    
Average Humidity 67    
Maximum Humidity 79    
Minimum Humidity 55    
Precipitation  
Precipitation 0.00 in 0.19 in 2.32 in (2011)
Month to date precipitation T 1.44  
Year to date precipitation 40.14 37.99  
Snow  
Snow 0.00 in - - ()
Month to date snowfall 0.0  
Since 1 July snowfall 0.0  
Since 1 September snowfall 0.0  
Snow Depth 0.00 in    
Sea Level Pressure  
Sea Level Pressure 30.00 in    
Wind  
Wind Speed 10 mph (NNE)    
Max Wind Speed 18 mph    
Max Gust Speed 23 mph    
Visibility 10 miles    
Events      
T = Trace of Precipitation, MM = Missing Value Source: NWS Daily Summary

Daily Weather History Graph

Daily Weather History Graph

Search for Another Location

Airport or City:

Trip Planner

Search our weather history database for the weather conditions in past years. The results will help you decide how hot, cold, wet, or windy it might be!

Date:

Astronomy

Oct. 08, 2010 Rise Set
Actual Time 7:19 AM EDT 7:04 PM EDT
Civil Twilight 6:56 AM EDT 7:26 PM EDT
Nautical Twilight 6:29 AM EDT 7:53 PM EDT
Astronomical Twilight 6:03 AM EDT 8:19 PM EDT
Moon 8:08 AM EDT (10/8) 7:35 PM EDT (10/8)
Length of Visible Light 12h 30m
Length of Day
11h 44m
New Moon, 1% of the Moon is Illuminated
Oct 8
New Moon
Oct 14
First Quarter
Oct 22
Full
Oct 30
Last Quarter
Nov 6
New

Hourly Weather History & Observations

Time (EDT) Temp. Heat Index Dew Point Humidity Pressure Visibility Wind Dir Wind Speed Gust Speed Precip Events Conditions
1:53 AM 75.0 °F - 64.0 °F 69% 29.98 in 10.0 mi NNE 10.4 mph 18.4 mph N/A   Overcast
2:53 AM 73.9 °F - 64.9 °F 73% 29.97 in 10.0 mi North 11.5 mph - N/A   Overcast
3:53 AM 73.9 °F - 66.0 °F 76% 29.96 in 10.0 mi NNE 15.0 mph 21.9 mph N/A   Overcast
4:53 AM 73.0 °F - 66.0 °F 79% 29.96 in 10.0 mi North 13.8 mph 19.6 mph N/A   Overcast
5:53 AM 73.0 °F - 64.9 °F 76% 29.96 in 10.0 mi NNE 13.8 mph 20.7 mph N/A   Overcast
6:53 AM 73.0 °F - 66.0 °F 79% 29.98 in 10.0 mi NNE 12.7 mph 17.3 mph N/A   Mostly Cloudy
7:53 AM 73.0 °F - 64.9 °F 76% 30.00 in 10.0 mi NNE 12.7 mph - N/A   Clear
8:53 AM 73.9 °F - 66.0 °F 76% 30.01 in 10.0 mi NNE 12.7 mph 20.7 mph N/A   Overcast
9:53 AM 77.0 °F - 66.9 °F 71% 30.03 in 10.0 mi North 12.7 mph 18.4 mph N/A   Clear
10:53 AM 78.1 °F - 66.0 °F 66% 30.04 in 10.0 mi NNE 11.5 mph - N/A   Clear
11:53 AM 80.1 °F 82.1 °F 66.0 °F 62% 30.03 in 10.0 mi North 12.7 mph - N/A   Clear
12:53 PM 81.0 °F 83.8 °F 68.0 °F 65% 30.01 in 10.0 mi North 9.2 mph - N/A   Clear
1:53 PM 82.0 °F 84.1 °F 66.0 °F 58% 29.99 in 10.0 mi NNE 10.4 mph - N/A   Clear
2:53 PM 82.0 °F 83.8 °F 64.9 °F 56% 29.97 in 10.0 mi NNE 12.7 mph - N/A   Clear
3:53 PM 82.0 °F 84.5 °F 66.9 °F 60% 29.96 in 10.0 mi NNE 8.1 mph - N/A   Clear
4:53 PM 82.0 °F 84.1 °F 66.0 °F 58% 29.97 in 10.0 mi NE 9.2 mph - N/A   Clear
5:53 PM 81.0 °F 82.7 °F 64.9 °F 58% 29.98 in 10.0 mi NE 9.2 mph - N/A   Clear
6:53 PM 79.0 °F - 66.0 °F 64% 29.99 in 10.0 mi NE 6.9 mph - N/A   Mostly Cloudy
7:53 PM 78.1 °F - 66.0 °F 66% 30.00 in 10.0 mi ENE 6.9 mph - N/A   Scattered Clouds
8:53 PM 78.1 °F - 66.0 °F 66% 30.02 in 10.0 mi ENE 5.8 mph - N/A   Clear
9:53 PM 77.0 °F - 66.0 °F 69% 30.04 in 10.0 mi ENE 6.9 mph - N/A   Overcast
10:53 PM 77.0 °F - 66.9 °F 71% 30.04 in 10.0 mi ENE 8.1 mph - N/A   Clear
11:53 PM 77.0 °F - 66.9 °F 71% 30.04 in 10.0 mi ENE 8.1 mph - N/A   Clear